| time (UTC) | temp F | wind direction | speed MPH | gust MPH | rain 1hr in | rain 24hr in | rain mn in | humidity % | barometer mb |
| 20260901122557 | 77 | 17 | 1.0 | 6.0 | 0.00 | 0.00 | 0.00 | 49 | 1021.1 |
| 20260901121554 | 77 | 72 | 1.0 | 5.0 | 0.00 | 0.00 | 0.00 | 49 | 1021.1 |
| 20260901120554 | 76 | 59 | 2.0 | 5.0 | 0.00 | 0.00 | 0.00 | 50 | 1021.2 |
| 20260901115609 | 75 | 50 | 1.0 | 5.0 | 0.00 | 0.00 | 0.00 | 52 | 1021.3 |
| 20260901114555 | 73 | 52 | 1.0 | 3.0 | 0.00 | 0.00 | 0.00 | 57 | 1021.4 |
| 20260901113556 | 72 | 23 | 2.0 | 6.0 | 0.00 | 0.00 | 0.00 | 56 | 1021.5 |
| 20260901112556 | 75 | 30 | 3.0 | 7.0 | 0.00 | 0.00 | 0.00 | 55 | 1021.5 |
| 20260901111636 | 74 | 98 | 1.0 | 3.0 | 0.00 | 0.00 | 0.00 | 54 | 1021.5 |
| 20260901110557 | 73 | 61 | 1.0 | 2.0 | 0.00 | 0.00 | 0.00 | 56 | 1021.6 |
| 20260901105656 | 73 | 86 | 1.0 | 3.0 | 0.00 | 0.00 | 0.00 | 55 | 1021.7 |
| 20260901104558 | 74 | 21 | 1.0 | 3.0 | 0.00 | 0.00 | 0.00 | 55 | 1021.7 |
| 20260901103557 | 75 | 29 | 2.0 | 6.0 | 0.00 | 0.00 | 0.00 | 54 | 1021.6 |
| 20260901102558 | 76 | 45 | 1.0 | 3.0 | 0.00 | 0.00 | 0.00 | 54 | 1021.8 |
| 20260901101558 | 75 | 24 | 2.0 | 5.0 | 0.00 | 0.00 | 0.00 | 56 | 1021.7 |
| 20260901100559 | 76 | 123 | 2.0 | 5.0 | 0.00 | 0.00 | 0.00 | 53 | 1021.7 |
| 20260901095559 | 75 | 173 | 2.0 | 5.0 | 0.00 | 0.00 | 0.00 | 54 | 1021.8 |
| 20260901094640 | 73 | 72 | 1.0 | 3.0 | 0.00 | 0.00 | 0.00 | 57 | 1021.8 |
| 20260901093600 | 73 | 176 | 1.0 | 5.0 | 0.00 | 0.00 | 0.00 | 58 | 1021.8 |
| 20260901092601 | 72 | 40 | 2.0 | 3.0 | 0.00 | 0.00 | 0.00 | 60 | 1021.9 |
| 20260901091601 | 72 | 354 | 1.0 | 5.0 | 0.00 | 0.00 | 0.00 | 59 | 1022.0 |
| 20260901090601 | 70 | 0 | 0.0 | 2.0 | 0.00 | 0.00 | 0.00 | 62 | 1021.9 |
| 20260901085602 | 72 | 67 | 1.0 | 3.0 | 0.00 | 0.00 | 0.00 | 61 | 1022.0 |
| 20260901084602 | 72 | 57 | 1.0 | 2.0 | 0.00 | 0.00 | 0.00 | 61 | 1022.0 |
| 20260901083603 | 71 | 90 | 1.0 | 2.0 | 0.00 | 0.00 | 0.00 | 61 | 1022.0 |
| 20260901082603 | 71 | 5 | 1.0 | 3.0 | 0.00 | 0.00 | 0.00 | 63 | 1022.0 |
| 20260901081603 | 70 | 103 | 1.0 | 3.0 | 0.00 | 0.00 | 0.00 | 64 | 1021.9 |
| 20260901080603 | 70 | 112 | 1.0 | 3.0 | 0.00 | 0.00 | 0.00 | 64 | 1021.9 |
| 20260901075604 | 69 | 107 | 1.0 | 5.0 | 0.00 | 0.00 | 0.00 | 65 | 1022.0 |
| 20260901074605 | 69 | 115 | 1.0 | 2.0 | 0.00 | 0.00 | 0.00 | 66 | 1021.9 |
| 20260901073533 | 68 | 117 | 2.0 | 5.0 | 0.00 | 0.00 | 0.00 | 68 | 1022.0 |
| 20260901072533 | 69 | 132 | 1.0 | 3.0 | 0.00 | 0.00 | 0.00 | 69 | 1022.0 |
| 20260901071554 | 68 | 113 | 1.0 | 3.0 | 0.00 | 0.00 | 0.00 | 71 | 1022.0 |
| 20260901070534 | 67 | 139 | 1.0 | 3.0 | 0.00 | 0.00 | 0.00 | 72 | 1021.9 |
| 20260901065535 | 66 | 103 | 1.0 | 2.0 | 0.00 | 0.00 | 0.00 | 71 | 1021.9 |
| 20260901064555 | 64 | 102 | 1.0 | 2.0 | 0.00 | 0.00 | 0.00 | 74 | 1021.9 |
| 20260901063536 | 64 | 119 | 2.0 | 2.0 | 0.00 | 0.00 | 0.00 | 74 | 1021.9 |
| 20260901062537 | 64 | 116 | 1.0 | 3.0 | 0.00 | 0.00 | 0.00 | 73 | 1021.9 |
| 20260901061536 | 63 | 99 | 0.0 | 2.0 | 0.00 | 0.00 | 0.00 | 77 | 1021.9 |
| 20260901060536 | 61 | 114 | 1.0 | 2.0 | 0.00 | 0.00 | 0.00 | 81 | 1022.0 |
| 20260901055557 | 61 | 110 | 0.0 | 2.0 | 0.00 | 0.00 | 0.00 | 80 | 1022.0 |
| 20260901054540 | 61 | 105 | 0.0 | 1.0 | 0.00 | 0.00 | 0.00 | 80 | 1022.0 |
| 20260901053539 | 59 | 0.0 | 0.0 | 0.00 | 0.00 | 0.00 | 84 | 1021.8 | |
| 20260901052538 | 57 | 108 | 0.0 | 1.0 | 0.00 | 0.00 | 0.00 | 88 | 1021.7 |
| 20260901051539 | 56 | 0.0 | 0.0 | 0.00 | 0.00 | 0.00 | 94 | 1021.6 | |
| 20260901050541 | 55 | 102 | 0.0 | 2.0 | 0.00 | 0.00 | 0.00 | 95 | 1021.6 |
| 20260901045539 | 53 | 0.0 | 0.0 | 0.00 | 0.00 | 0.00 | 96 | 1021.5 | |
| 20260901044600 | 53 | 0.0 | 0.0 | 0.00 | 0.00 | 0.00 | 96 | 1021.4 | |
| 20260901043601 | 53 | 0.0 | 0.0 | 0.00 | 0.00 | 0.00 | 96 | 1021.5 | |
| 20260901042541 | 54 | 0.0 | 0.0 | 0.00 | 0.00 | 0.00 | 95 | 1021.5 | |
| 20260901041541 | 54 | 0.0 | 0.0 | 0.00 | 0.00 | 0.00 | 95 | 1021.4 | |
| 20260901040541 | 55 | 0.0 | 0.0 | 0.00 | 0.00 | 0.00 | 94 | 1021.3 | |
| 20260901035542 | 55 | 0.0 | 0.0 | 0.00 | 0.00 | 0.00 | 94 | 1021.4 | |
| 20260901034602 | 55 | 0.0 | 0.0 | 0.00 | 0.00 | 0.00 | 93 | 1021.4 | |
| 20260901033543 | 56 | 0.0 | 0.0 | 0.00 | 0.00 | 0.00 | 91 | 1021.5 | |
| 20260901032544 | 57 | 0.0 | 0.0 | 0.00 | 0.02 | 0.00 | 90 | 1021.5 | |
| 20260901031544 | 58 | 0.0 | 0.0 | 0.00 | 0.05 | 0.00 | 88 | 1021.4 | |
| 20260901030544 | 58 | 0.0 | 0.0 | 0.00 | 0.05 | 0.00 | 87 | 1021.4 | |
| 20260901025544 | 58 | 93 | 0.0 | 1.0 | 0.00 | 0.05 | 0.00 | 87 | 1021.5 |
| 20260901024605 | 58 | 99 | 0.0 | 2.0 | 0.00 | 0.05 | 0.00 | 86 | 1021.4 |
| 20260901023547 | 58 | 101 | 0.0 | 1.0 | 0.00 | 0.05 | 0.00 | 88 | 1021.5 |
| 20260901022547 | 59 | 166 | 2.0 | 3.0 | 0.00 | 0.05 | 0.00 | 86 | 1021.5 |
| 20260901021606 | 59 | 0.0 | 0.0 | 0.00 | 0.05 | 0.00 | 87 | 1021.3 | |
| 20260901020546 | 59 | 49 | 0.0 | 1.0 | 0.00 | 0.05 | 0.00 | 86 | 1021.3 |
| 20260901015608 | 59 | 0.0 | 0.0 | 0.00 | 0.05 | 0.00 | 86 | 1021.4 | |
| 20260901014548 | 59 | 63 | 0.0 | 1.0 | 0.00 | 0.05 | 0.00 | 85 | 1021.4 |
| 20260901013608 | 59 | 0.0 | 0.0 | 0.00 | 0.05 | 0.00 | 86 | 1021.3 | |
| 20260901012549 | 59 | 0.0 | 0.0 | 0.00 | 0.05 | 0.00 | 86 | 1021.3 | |
| 20260901011550 | 59 | 0.0 | 0.0 | 0.00 | 0.05 | 0.00 | 85 | 1021.4 | |
| 20260901010549 | 59 | 0.0 | 0.0 | 0.00 | 0.05 | 0.00 | 83 | 1021.4 | |
| 20260901005549 | 59 | 0.0 | 0.0 | 0.00 | 0.05 | 0.00 | 85 | 1021.5 | |
| 20260901004550 | 59 | 0.0 | 0.0 | 0.00 | 0.05 | 0.00 | 84 | 1021.4 | |
| 20260901003550 | 60 | 73 | 0.0 | 1.0 | 0.00 | 0.05 | 0.00 | 81 | 1021.4 |
| 20260901002553 | 60 | 0.0 | 0.0 | 0.00 | 0.05 | 0.00 | 78 | 1021.4 | |
| 20260901001551 | 61 | 79 | 0.0 | 1.0 | 0.00 | 0.05 | 0.00 | 76 | 1021.5 |
| 20260901000553 | 61 | 96 | 0.0 | 1.0 | 0.00 | 0.05 | 0.00 | 75 | 1021.5 |
| 20260831235612 | 61 | 104 | 0.0 | 2.0 | 0.00 | 0.05 | 0.00 | 75 | 1021.4 |
| 20260831234608 | 62 | 120 | 1.0 | 3.0 | 0.00 | 0.05 | 0.00 | 73 | 1021.5 |
| 20260831233613 | 63 | 124 | 1.0 | 2.0 | 0.00 | 0.05 | 0.00 | 72 | 1021.4 |
| 20260831232553 | 63 | 172 | 1.0 | 7.0 | 0.00 | 0.05 | 0.00 | 73 | 1021.4 |
| 20260831231553 | 63 | 150 | 1.0 | 3.0 | 0.00 | 0.05 | 0.00 | 72 | 1021.4 |
| 20260831230555 | 64 | 169 | 1.0 | 5.0 | 0.00 | 0.05 | 0.00 | 70 | 1021.4 |
| 20260831225555 | 64 | 168 | 1.0 | 6.0 | 0.00 | 0.05 | 0.00 | 69 | 1021.5 |
| 20260831224555 | 64 | 353 | 1.0 | 5.0 | 0.00 | 0.05 | 0.00 | 69 | 1021.4 |
| 20260831223555 | 65 | 54 | 2.0 | 6.0 | 0.00 | 0.05 | 0.00 | 69 | 1021.2 |
| 20260831222556 | 65 | 168 | 1.0 | 10.0 | 0.00 | 0.05 | 0.00 | 69 | 1021.2 |
| 20260831221617 | 66 | 230 | 2.0 | 6.0 | 0.00 | 0.05 | 0.00 | 69 | 1021.1 |
| 20260831220617 | 66 | 202 | 1.0 | 2.0 | 0.00 | 0.05 | 0.00 | 70 | 1020.9 |
| 20260831215557 | 66 | 182 | 1.0 | 6.0 | 0.00 | 0.05 | 0.05 | 71 | 1020.9 |
| 20260831214559 | 66 | 167 | 1.0 | 3.0 | 0.00 | 0.05 | 0.05 | 71 | 1020.7 |
| 20260831213558 | 66 | 139 | 1.0 | 2.0 | 0.00 | 0.05 | 0.05 | 71 | 1020.6 |
| 20260831212558 | 66 | 121 | 0.0 | 3.0 | 0.00 | 0.05 | 0.05 | 72 | 1020.4 |
| 20260831211559 | 67 | 76 | 0.0 | 2.0 | 0.00 | 0.05 | 0.05 | 72 | 1020.2 |
| 20260831210559 | 67 | 180 | 1.0 | 6.0 | 0.00 | 0.05 | 0.05 | 71 | 1020.1 |
| 20260831205600 | 67 | 71 | 1.0 | 5.0 | 0.00 | 0.05 | 0.05 | 71 | 1019.9 |
| 20260831204601 | 67 | 194 | 1.0 | 5.0 | 0.00 | 0.05 | 0.05 | 71 | 1019.8 |
| 20260831203601 | 67 | 140 | 2.0 | 6.0 | 0.00 | 0.05 | 0.05 | 71 | 1019.7 |
| 20260831202602 | 67 | 153 | 2.0 | 7.0 | 0.00 | 0.05 | 0.05 | 71 | 1019.5 |
| 20260831201601 | 66 | 159 | 1.0 | 5.0 | 0.00 | 0.05 | 0.05 | 73 | 1019.4 |
| 20260831200533 | 66 | 207 | 1.0 | 3.0 | 0.00 | 0.05 | 0.05 | 73 | 1019.2 |
| 20260831195534 | 66 | 178 | 1.0 | 3.0 | 0.00 | 0.05 | 0.05 | 74 | 1019.2 |
| 20260831194535 | 65 | 107 | 1.0 | 3.0 | 0.00 | 0.05 | 0.05 | 74 | 1019.1 |
| 20260831193535 | 65 | 143 | 0.0 | 2.0 | 0.00 | 0.05 | 0.05 | 74 | 1019.2 |
| 20260831192536 | 66 | 202 | 0.0 | 2.0 | 0.00 | 0.05 | 0.05 | 73 | 1019.1 |
| 20260831191537 | 66 | 116 | 0.0 | 1.0 | 0.00 | 0.05 | 0.05 | 73 | 1019.0 |
| 20260831190538 | 66 | 92 | 0.0 | 2.0 | 0.00 | 0.05 | 0.05 | 72 | 1019.0 |
| 20260831185537 | 67 | 129 | 1.0 | 2.0 | 0.00 | 0.05 | 0.05 | 71 | 1018.9 |
| 20260831184537 | 67 | 158 | 1.0 | 5.0 | 0.00 | 0.05 | 0.05 | 69 | 1018.7 |
| 20260831183618 | 68 | 133 | 1.0 | 5.0 | 0.00 | 0.05 | 0.05 | 68 | 1018.4 |
| 20260831182558 | 68 | 143 | 2.0 | 3.0 | 0.00 | 0.05 | 0.05 | 66 | 1018.3 |
| 20260831181538 | 69 | 201 | 2.0 | 9.0 | 0.00 | 0.05 | 0.05 | 64 | 1017.9 |
| 20260831180559 | 69 | 210 | 2.0 | 5.0 | 0.00 | 0.05 | 0.05 | 62 | 1017.7 |
| 20260831175559 | 70 | 156 | 2.0 | 7.0 | 0.00 | 0.05 | 0.05 | 61 | 1017.4 |
| 20260831174539 | 70 | 182 | 2.0 | 7.0 | 0.00 | 0.05 | 0.05 | 60 | 1017.5 |
| 20260831173620 | 70 | 188 | 3.0 | 7.0 | 0.00 | 0.05 | 0.05 | 60 | 1017.4 |
| 20260831172541 | 70 | 194 | 3.0 | 7.0 | 0.00 | 0.05 | 0.05 | 60 | 1017.3 |
| 20260831171540 | 71 | 181 | 2.0 | 7.0 | 0.00 | 0.05 | 0.05 | 60 | 1017.2 |
| 20260831170541 | 71 | 196 | 2.0 | 7.0 | 0.00 | 0.05 | 0.05 | 59 | 1017.1 |
| 20260831165541 | 71 | 194 | 2.0 | 8.0 | 0.00 | 0.05 | 0.05 | 58 | 1017.1 |
| 20260831164543 | 72 | 194 | 2.0 | 6.0 | 0.00 | 0.05 | 0.05 | 57 | 1017.1 |
| 20260831163543 | 72 | 61 | 2.0 | 5.0 | 0.00 | 0.05 | 0.05 | 55 | 1017.1 |
| 20260831162543 | 73 | 205 | 2.0 | 6.0 | 0.00 | 0.05 | 0.05 | 55 | 1017.1 |
| 20260831161545 | 74 | 286 | 2.0 | 8.0 | 0.00 | 0.05 | 0.05 | 54 | 1017.0 |
| 20260831160544 | 73 | 275 | 2.0 | 7.0 | 0.00 | 0.05 | 0.05 | 54 | 1016.7 |
| 20260831155544 | 73 | 218 | 3.0 | 8.0 | 0.00 | 0.05 | 0.05 | 54 | 1016.7 |
| 20260831154544 | 74 | 230 | 3.0 | 9.0 | 0.00 | 0.05 | 0.05 | 53 | 1016.7 |
| 20260831153545 | 74 | 217 | 3.0 | 9.0 | 0.00 | 0.05 | 0.05 | 51 | 1016.8 |
| 20260831152545 | 76 | 202 | 3.0 | 9.0 | 0.00 | 0.05 | 0.05 | 49 | 1016.9 |
| 20260831151545 | 76 | 74 | 2.0 | 7.0 | 0.00 | 0.05 | 0.05 | 49 | 1016.8 |
| 20260831150546 | 75 | 254 | 3.0 | 13.0 | 0.00 | 0.05 | 0.05 | 51 | 1017.0 |
| 20260831145547 | 74 | 189 | 3.0 | 6.0 | 0.00 | 0.05 | 0.05 | 53 | 1017.1 |
| 20260831144629 | 75 | 69 | 2.0 | 7.0 | 0.00 | 0.05 | 0.05 | 55 | 1017.1 |
| 20260831143547 | 75 | 148 | 2.0 | 6.0 | 0.00 | 0.05 | 0.05 | 56 | 1017.0 |
| 20260831142628 | 75 | 217 | 3.0 | 10.0 | 0.00 | 0.05 | 0.05 | 54 | 1017.0 |
| 20260831141548 | 76 | 12 | 2.0 | 8.0 | 0.00 | 0.05 | 0.05 | 55 | 1016.9 |
| 20260831140549 | 76 | 278 | 2.0 | 8.0 | 0.00 | 0.05 | 0.05 | 55 | 1017.0 |
| 20260831135609 | 77 | 120 | 2.0 | 7.0 | 0.00 | 0.05 | 0.05 | 55 | 1017.0 |
| 20260831134550 | 78 | 348 | 2.0 | 5.0 | 0.00 | 0.05 | 0.05 | 54 | 1017.0 |
| 20260831133550 | 77 | 217 | 3.0 | 9.0 | 0.00 | 0.05 | 0.05 | 54 | 1017.0 |
| 20260831132551 | 79 | 338 | 4.0 | 10.0 | 0.00 | 0.05 | 0.05 | 53 | 1016.9 |
| 20260831131551 | 79 | 326 | 3.0 | 8.0 | 0.00 | 0.05 | 0.05 | 55 | 1016.9 |
| 20260831130551 | 78 | 188 | 3.0 | 8.0 | 0.00 | 0.05 | 0.05 | 55 | 1016.9 |
| 20260831125611 | 79 | 16 | 2.0 | 7.0 | 0.00 | 0.05 | 0.05 | 55 | 1017.0 |
| 20260831124552 | 78 | 12 | 3.0 | 9.0 | 0.00 | 0.05 | 0.05 | 58 | 1017.0 |
| 20260831123612 | 78 | 173 | 3.0 | 8.0 | 0.00 | 0.05 | 0.05 | 58 | 1016.9 |